Wind_Speed
11 10 10 9 10 11 12 11 10 10 12 14 14 13 13 11 11 9 9 12 12 13 11 11 7 9 13 7 7 15 21 29 25 19 11 2 5 14 6 2 4 5 7 3 10
14 14 14 14 12 11 11 12 12 12 12 13 15 15 14 12 10 8 6 8 13 15 17 16 11 12 16 10 7 12 21 26 32 19 15 11 8 3 11 5 2 10 7 5 5
17 17 17 16 16 17 15 13 13 14 14 13 14 16 15 14 11 9 7 4 5 15 20 20 17 16 17 14 6 15 22 27 23 17 15 12 5 4 6 11 3 3 8 9 2
19 19 20 20 19 18 18 19 17 15 15 15 15 15 16 15 11 10 11 10 7 5 11 20 21 21 19 16 12 20 13 22 22 15 13 12 14 8 7 6 3 1 5 8 9
24 23 23 23 23 23 21 21 21 22 20 18 17 17 17 19 15 16 12 10 9 9 9 13 22 22 21 19 17 16 20 23 19 13 14 14 11 20 10 7 8 4 8 5 12
23 25 26 27 26 25 25 24 24 23 25 26 25 22 20 19 19 18 16 13 10 10 10 13 18 19 23 17 16 21 23 26 19 12 17 16 15 18 12 13 11 6 8 8 12
22 22 22 22 24 25 27 28 27 27 26 26 28 31 29 15 14 18 23 16 12 9 12 12 13 16 17 21 19 22 23 25 19 17 16 15 20 22 21 17 14 10 9 11 9
21 20 21 21 23 23 22 22 26 30 29 28 29 32 37 24 21 22 23 22 19 12 11 13 15 13 12 18 25 25 24 31 19 20 11 19 27 28 20 18 15 11 13 11 6
21 21 21 22 23 22 21 21 24 25 28 30 31 32 35 27 28 16 22 23 20 18 13 14 19 16 14 19 23 26 27 24 17 9 21 24 31 21 23 20 18 16 19 12 6
22 23 23 24 25 24 21 21 22 25 26 26 30 31 25 17 13 15 14 21 23 18 18 19 23 23 22 20 24 24 24 21 26 17 27 19 16 17 20 21 22 18 21 15 13
23 23 23 23 24 24 21 22 23 23 25 26 25 31 30 25 20 23 15 18 26 22 22 15 18 22 23 21 20 21 25 30 27 26 27 18 14 7 8 15 24 23 25 21 16
23 23 22 21 21 19 20 20 23 26 33 21 29 32 32 24 31 26 21 26 26 34 25 28 29 23 17 15 18 20 25 31 30 25 21 20 21 16 14 14 23 25 26 24 20
23 23 22 17 17 15 19 16 17 24 31 30 22 24 26 27 32 29 27 27 32 33 30 34 30 26 30 29 29 29 32 29 32 26 23 20 26 20 12 15 20 22 24 25 18
25 23 22 15 14 14 16 17 16 21 22 13 9 15 19 16 25 28 34 29 23 39 28 32 34 32 32 34 31 33 23 27 32 18 25 25 18 28 19 18 21 25 29 28 23
23 23 19 18 11 11 11 13 13 13 5 6 9 10 27 25 25 9 28 36 31 28 35 38 31 31 33 35 34 39 30 32 31 20 23 27 18 22 17 28 26 22 30 29 25
19 19 13 15 12 10 11 9 8 2 7 6 11 22 21 11 19 29 18 36 35 32 34 33 32 31 34 33 33 36 30 24 19 22 18 27 27 41 30 30 34 27 34 33 27
14 14 13 10 12 7 8 6 3 6 3 5 22 24 19 22 25 22 18 28 34 32 35 33 36 35 37 40 39 36 33 20 7 6 9 22 16 32 31 26 25 28 33 37 28
12 9 10 11 9 6 6 4 6 5 11 21 22 19 15 25 25 29 14 25 33 37 34 34 34 39 38 41 42 37 29 18 7 4 13 27 14 40 34 38 31 26 31 41 31
10 8 9 5 6 7 6 6 5 12 11 21 20 17 14 25 28 27 14 18 15 15 32 40 42 40 40 38 37 37 32 33 24 15 7 12 23 28 30 14 16 18 36 35 31
7 4 2 4 3 7 6 8 9 12 14 15 22 17 29 31 30 23 15 15 17 14 14 13 10 24 39 38 38 41 34 26 20 3 8 11 20 25 11 11 18 26 31 33 27
4 4 2 2 3 4 5 7 9 11 19 27 20 23 24 25 21 17 17 16 20 22 15 7 12 29 25 24 39 37 29 19 25 26 7 3 15 18 18 16 26 26 26 26 25
3 2 4 3 9 9 5 12 14 17 18 15 15 18 23 22 21 17 19 14 21 16 15 8 11 11 23 36 26 13 27 27 29 23 11 19 21 22 24 12 27 30 27 29 25
5 7 2 5 5 10 12 14 12 15 17 21 16 16 19 20 22 19 18 15 15 16 17 14 10 15 12 12 34 36 33 31 34 22 35 22 22 16 11 18 21 27 36 34 28
8 6 9 9 9 14 16 8 15 10 14 20 19 15 14 15 15 18 19 20 15 15 4 19 9 6 10 25 17 6 11 4 6 22 25 38 34 20 19 19 23 27 35 35 30
8 12 11 9 11 12 12 13 17 14 14 18 22 18 16 19 18 14 13 16 12 11 10 16 17 19 22 7 3 4 3 5 4 12 10 15 15 24 26 19 19 23 35 33 34
9 13 13 14 12 14 8 10 14 15 13 16 15 15 14 17 19 24 18 12 13 16 10 9 25 15 21 15 2 2 4 6 3 7 10 4 11 16 14 12 11 12 20 22 20
8 10 13 11 12 14 7 5 10 15 11 12 19 20 19 16 20 23 18 19 18 17 12 11 21 19 14 12 7 8 12 8 4 8 13 8 16 12 13 18 15 18 23 19 10
Wind_Direction
291 295 306 314 317 320 321 321 312 294 275 268 273 273 273 262 265 279 257 240 246 241 239 256 264 306 290 257 323 331 314 327 336 342 3 256 246 188 142 108 22 51 38 41 27
290 287 282 279 286 295 301 307 309 306 292 276 267 264 267 262 252 266 274 246 237 239 240 239 246 271 278 245 281 307 312 322 328 326 339 347 232 238 188 201 112 42 30 7 48
295 294 290 285 280 275 278 285 290 295 298 291 277 265 258 255 245 253 229 236 250 237 236 238 238 248 256 253 231 323 322 316 331 338 314 319 252 264 247 250 230 22 19 16 44
293 291 291 290 287 282 277 272 275 279 284 285 286 277 262 249 248 246 239 247 249 255 243 239 242 247 253 248 255 319 289 309 313 340 288 314 318 267 263 303 302 244 356 14 357
292 292 291 291 289 288 284 279 271 268 272 276 277 275 271 256 239 248 249 258 264 264 275 254 236 241 251 250 273 306 288 294 301 316 271 286 281 312 238 250 282 259 327 316 336
292 289 287 286 284 285 284 283 280 275 270 271 274 275 268 254 255 246 245 251 259 272 275 275 240 234 248 247 286 284 288 281 285 276 270 283 265 290 236 229 247 228 308 274 319
297 296 296 294 288 282 280 280 280 278 275 270 267 269 265 246 257 237 236 250 248 267 282 279 228 223 250 260 265 275 285 262 259 259 245 281 291 308 237 238 236 227 252 268 316
298 300 300 299 296 294 290 287 279 273 273 272 270 268 262 252 263 251 238 240 243 240 267 271 191 211 241 271 271 275 267 276 259 250 219 294 288 308 232 237 236 229 245 256 351
300 304 303 300 297 296 296 294 285 283 275 270 271 271 275 259 255 284 252 238 247 239 232 233 215 212 237 259 270 264 264 260 272 242 302 307 301 278 236 236 228 237 241 242 271
309 309 306 303 300 298 303 296 287 284 278 274 271 272 268 251 224 221 223 243 251 238 234 206 210 212 228 239 248 248 247 263 278 302 318 301 327 242 233 231 234 234 234 229 267
306 305 304 301 297 299 297 288 284 282 276 273 263 266 262 260 251 226 210 216 245 249 245 213 222 224 234 237 251 254 267 276 285 307 295 292 301 295 259 229 233 235 224 228 256
307 305 305 304 298 298 295 302 305 294 291 270 279 276 278 268 252 227 221 218 223 235 232 232 240 243 255 252 250 257 269 276 281 287 286 278 293 293 253 254 238 241 222 231 234
307 309 308 309 300 296 291 296 301 298 301 314 308 288 278 264 262 240 216 215 227 235 238 233 232 240 247 254 257 262 263 270 278 289 282 285 294 280 259 247 252 245 242 246 251
312 312 310 312 301 287 291 306 307 308 313 354 21 8 5 333 277 260 214 225 235 233 246 246 240 239 243 252 254 263 260 268 271 276 283 290 295 278 269 257 256 254 232 232 232
310 309 312 313 297 287 293 290 293 304 330 2 21 345 338 334 327 293 231 224 231 230 238 246 247 246 245 241 255 259 274 276 255 274 281 283 286 284 271 267 257 273 237 234 231
305 306 315 306 298 296 286 302 301 264 256 303 327 329 341 346 327 322 282 232 227 237 237 246 254 254 256 256 263 271 288 257 236 254 273 278 287 282 274 264 258 266 240 233 230
307 316 318 305 291 286 270 268 245 222 297 295 325 329 342 357 352 347 258 224 230 238 248 247 247 250 253 262 268 275 282 255 257 269 249 271 272 269 281 289 258 261 245 226 219
312 324 318 317 296 285 263 243 231 266 284 304 316 318 335 9 10 359 341 254 226 234 245 255 256 244 244 252 260 269 277 247 207 222 259 271 260 275 294 290 275 256 235 217 207
316 326 340 342 301 274 247 238 267 304 313 320 329 334 319 349 344 352 28 44 263 269 259 244 245 252 242 243 249 264 264 270 250 255 270 274 283 286 308 271 190 207 201 204 213
309 329 8 18 286 254 263 265 291 326 325 326 321 307 314 333 331 337 349 26 5 11 354 1 356 259 253 253 259 255 257 258 246 168 265 276 287 293 276 188 211 199 205 206 200
322 359 49 15 347 314 297 303 326 338 328 318 302 303 316 342 335 336 329 342 360 358 8 331 293 274 262 269 256 249 248 269 297 239 210 237 272 258 315 290 249 218 209 222 215
42 60 357 20 335 323 328 329 326 335 336 317 300 303 308 321 334 333 328 337 331 348 5 41 296 295 271 254 262 227 278 269 229 249 260 240 247 276 297 285 228 202 217 213 212
116 138 159 237 355 345 319 299 311 321 327 336 342 316 304 314 320 318 307 314 347 351 1 17 325 339 335 294 263 267 262 249 253 255 240 232 247 255 249 222 220 218 200 203 202
175 174 178 202 262 292 309 316 323 317 317 338 327 325 320 313 310 326 311 303 328 332 45 352 282 298 305 310 309 303 250 264 226 235 264 236 240 210 215 224 241 224 211 200 202
224 218 218 218 225 254 280 320 319 321 333 332 317 317 330 337 332 322 309 302 285 329 247 338 329 314 309 318 300 269 257 337 360 276 313 325 276 203 216 222 215 216 211 214 198
253 252 255 260 259 257 283 323 346 312 316 349 340 312 308 320 319 327 327 314 319 332 257 354 321 302 292 357 22 79 88 23 156 264 286 274 134 186 178 155 147 176 212 234 260
259 264 262 251 258 250 229 319 335 307 255 327 315 310 300 298 306 304 303 281 292 297 248 268 291 289 295 345 217 75 61 30 14 227 238 180 136 153 157 121 133 137 141 148 164
Height
3205 3205 3204 3203 3201 3200 3199 3197 3196 3195 3195 3194 3194 3194 3193 3194 3193 3193 3192 3193 3193 3194 3194 3193 3195 3195 3193 3193 3191 3191 3188 3181 3181 3181 3180 3179 3178 3179 3179 3177 3177 3176 3176 3176 3175
3202 3201 3201 3200 3199 3198 3197 3196 3195 3193 3192 3191 3191 3190 3191 3191 3191 3190 3191 3190 3190 3190 3191 3191 3193 3192 3190 3191 3190 3189 3187 3183 3183 3183 3183 3179 3178 3178 3178 3177 3177 3176 3175 3174 3176
3198 3198 3197 3196 3195 3195 3194 3193 3192 3191 3190 3189 3188 3187 3188 3189 3189 3188 3187 3187 3187 3188 3187 3188 3189 3189 3188 3189 3189 3187 3185 3181 3178 3180 3180 3180 3177 3176 3175 3176 3178 3176 3175 3173 3174
3194 3193 3192 3191 3191 3190 3190 3189 3188 3187 3186 3185 3184 3184 3184 3185 3189 3186 3185 3184 3184 3184 3185 3184 3185 3185 3184 3185 3186 3183 3182 3181 3177 3176 3175 3177 3178 3175 3175 3175 3174 3175 3174 3173 3174
3191 3189 3188 3187 3185 3185 3184 3184 3183 3183 3182 3180 3180 3179 3180 3182 3185 3183 3183 3182 3181 3180 3181 3180 3181 3182 3181 3181 3179 3180 3178 3176 3175 3174 3173 3175 3175 3175 3172 3172 3172 3172 3172 3173 3174
3186 3185 3183 3181 3180 3179 3179 3178 3178 3177 3176 3176 3175 3174 3175 3178 3179 3180 3180 3180 3179 3178 3177 3177 3178 3180 3178 3179 3178 3176 3175 3173 3172 3173 3172 3172 3171 3172 3171 3168 3170 3171 3171 3171 3172
3182 3179 3178 3176 3175 3174 3173 3172 3171 3170 3170 3170 3169 3168 3167 3174 3173 3173 3175 3177 3176 3175 3175 3174 3174 3177 3177 3175 3175 3174 3172 3171 3172 3172 3170 3171 3168 3165 3165 3165 3167 3168 3170 3170 3170
3178 3176 3174 3172 3170 3169 3167 3165 3165 3163 3163 3162 3162 3160 3158 3169 3167 3168 3169 3171 3172 3172 3172 3171 3172 3173 3173 3174 3171 3172 3172 3169 3168 3170 3168 3170 3166 3164 3160 3161 3163 3164 3167 3169 3167
3174 3171 3169 3167 3166 3164 3163 3160 3157 3157 3156 3155 3154 3153 3153 3160 3162 3165 3164 3166 3166 3168 3168 3168 3168 3169 3171 3171 3170 3169 3168 3168 3164 3167 3167 3167 3160 3158 3156 3156 3157 3160 3163 3164 3163
3169 3167 3165 3163 3161 3159 3157 3154 3152 3150 3149 3149 3147 3150 3151 3156 3154 3155 3156 3160 3161 3163 3165 3163 3163 3163 3165 3166 3165 3165 3165 3164 3162 3160 3163 3162 3158 3157 3152 3153 3153 3156 3158 3160 3160
3165 3163 3161 3159 3156 3153 3153 3150 3149 3146 3143 3144 3144 3140 3141 3148 3149 3149 3153 3152 3155 3157 3159 3161 3160 3158 3159 3161 3161 3163 3164 3161 3157 3158 3160 3157 3156 3156 3156 3153 3152 3152 3154 3155 3157
3161 3159 3157 3155 3151 3149 3148 3146 3144 3139 3132 3140 3136 3134 3135 3141 3135 3143 3148 3147 3149 3148 3153 3155 3153 3154 3157 3158 3159 3159 3159 3158 3156 3156 3156 3153 3151 3152 3153 3153 3150 3149 3150 3153 3155
3156 3154 3152 3150 3147 3146 3143 3145 3143 3137 3132 3131 3130 3128 3129 3133 3130 3136 3140 3141 3141 3144 3147 3148 3145 3151 3154 3153 3155 3154 3154 3153 3154 3153 3151 3150 3146 3146 3148 3149 3148 3147 3147 3150 3151
3152 3149 3145 3146 3146 3142 3141 3141 3139 3136 3131 3129 3127 3127 3129 3127 3126 3127 3132 3136 3135 3138 3142 3140 3144 3146 3148 3149 3150 3150 3149 3150 3150 3149 3146 3147 3143 3140 3141 3141 3144 3143 3143 3146 3148
3147 3144 3142 3140 3140 3139 3139 3137 3137 3138 3137 3129 3128 3128 3125 3126 3123 3120 3124 3127 3128 3132 3136 3133 3139 3140 3141 3139 3146 3145 3145 3144 3144 3143 3141 3141 3139 3136 3137 3135 3138 3138 3137 3141 3143
3144 3141 3140 3136 3135 3136 3135 3134 3136 3139 3131 3126 3127 3123 3121 3121 3119 3114 3114 3118 3124 3127 3127 3129 3133 3134 3134 3135 3139 3141 3141 3139 3137 3138 3134 3136 3136 3123 3130 3132 3132 3134 3133 3136 3139
3140 3137 3134 3133 3132 3132 3133 3134 3137 3134 3131 3126 3122 3121 3121 3119 3116 3109 3107 3110 3115 3120 3120 3125 3125 3128 3129 3131 3130 3135 3136 3134 3133 3133 3129 3131 3133 3123 3121 3125 3126 3125 3124 3129 3135
3136 3135 3132 3130 3129 3130 3131 3134 3134 3131 3129 3127 3124 3121 3120 3118 3116 3111 3104 3107 3111 3116 3117 3117 3118 3122 3122 3124 3124 3127 3131 3129 3133 3134 3126 3126 3124 3114 3119 3112 3110 3113 3113 3122 3130
3132 3132 3130 3128 3127 3128 3130 3131 3130 3129 3128 3126 3121 3118 3115 3117 3120 3115 3112 3112 3110 3118 3114 3108 3107 3113 3117 3118 3122 3120 3124 3126 3123 3121 3124 3120 3120 3116 3113 3103 3105 3108 3112 3119 3124
3130 3130 3129 3127 3126 3127 3129 3129 3128 3128 3127 3126 3124 3122 3117 3117 3116 3114 3112 3110 3110 3110 3108 3106 3104 3106 3109 3114 3112 3116 3119 3121 3118 3121 3123 3115 3116 3116 3113 3109 3108 3110 3113 3118 3124
3127 3127 3129 3126 3126 3126 3126 3126 3126 3125 3126 3124 3121 3119 3117 3116 3115 3112 3110 3109 3106 3105 3103 3104 3103 3102 3104 3105 3106 3109 3111 3111 3117 3112 3113 3117 3112 3113 3111 3110 3109 3111 3114 3117 3121
3125 3125 3124 3125 3126 3125 3124 3124 3124 3120 3120 3118 3117 3116 3115 3113 3111 3110 3109 3109 3108 3105 3103 3103 3102 3099 3097 3097 3102 3099 3104 3108 3109 3108 3107 3108 3108 3107 3108 3106 3104 3110 3112 3116 3121
3124 3124 3125 3125 3125 3124 3123 3121 3122 3120 3118 3116 3114 3111 3111 3110 3110 3108 3106 3105 3105 3103 3103 3101 3101 3097 3093 3095 3094 3096 3097 3101 3102 3101 3101 3105 3103 3104 3105 3106 3104 3104 3106 3110 3115
3122 3122 3122 3123 3123 3122 3120 3119 3117 3117 3116 3113 3111 3109 3106 3105 3105 3103 3104 3101 3102 3102 3102 3101 3100 3100 3103 3100 3095 3091 3091 3094 3092 3100 3099 3096 3098 3100 3100 3102 3101 3100 3104 3108 3108
3119 3119 3119 3120 3122 3121 3121 3120 3115 3112 3112 3110 3107 3107 3107 3104 3101 3101 3101 3100 3100 3099 3098 3100 3099 3098 3100 3093 3090 3088 3088 3089 3092 3095 3096 3091 3093 3094 3096 3094 3095 3096 3101 3104 3106
3117 3117 3118 3118 3118 3118 3118 3116 3114 3112 3113 3110 3107 3104 3103 3104 3102 3099 3099 3099 3097 3096 3095 3095 3095 3096 3097 3093 3086 3082 3084 3087 3088 3100 3100 3095 3091 3091 3093 3094 3094 3097 3099 3104 3106
3114 3114 3113 3113 3113 3114 3114 3112 3111 3109 3108 3108 3104 3101 3100 3098 3097 3096 3096 3095 3093 3093 3093 3092 3096 3097 3092 3089 3086 3083 3084 3083 3090 3094 3094 3091 3093 3093 3094 3099 3093 3095 3096 3098 3099